Погода в Чинете

Россия / Алтайский край     51°20′05″N   83°03′00″E
темп.,
°C
ветер,
м/с
пор.,
м/с
влажн.,
%
обл.,
%
осадки,
мм/ч
давл.,
гПа
погр.,
м
12 мая, ср
ср1201:00+6ю2262100 0.0 101522
04:00+6ююз225966 0.0 101515
07:00+7ююз116389 0.0 101511
10:00+12сз234850 0.0 1015945
13:00+13ссз565282 0.9 10151288
16:00+15ссз464099 0.6 10142203
19:00+14ссз674846 1.0 10161455
22:00+9зюз236481 0.3 101849
13 мая, чт
чт1301:00+7ю228381 1.3 101915
04:00+6ю228225 0.0 101823
07:00+7ююз227895 0.0 101841
10:00+14юз244999 0.1 10161390
13:00+14з4540100 0.1 10142146
16:00+13зюз5656100 0.1 10141589
19:00+10юз4684100 1.4 1014711
22:00+7ю249370 4.1 1016131
14 мая, пт
пт1401:00+5ю2293100 4.8 101628
04:00+6зюз119225 0.1 101616
07:00+6зсз1194100 0.3 101886
10:00+8ссз248038 0.4 1019800
13:00+8с457558 1.4 10201027
16:00+8с477496 0.4 1022876
19:00+10в35666 0.4 1022625
22:00+5вюв22885 0.0 102515
15 мая, сб
сб1501:00+4в11918 0.0 102614
04:00+3всв11928 0.0 102515
07:00+4всв138419 0.0 102687
10:00+11св365934 0.0 1024609
13:00+15св46425 0.0 10231110
16:00+17ссв46410 0.0 10221419
19:00+16ссв45570 0.0 1022932
22:00+9вюв11845 0.0 102310
16 мая, вс
вс1601:00+8ююв22865 0.0 102211
04:00+8ююв22835 0.0 102117
07:00+10ю22724 0.0 102133
10:00+18сз12435 0.0 1019691
13:00+21сз223147 0.0 10181523
16:00+21сз3437100 0.0 10171743
19:00+19юз245013 0.0 1016492
22:00+12зюз227798 0.1 101831